Location: Auckland
(36.8670°S, 174.7670°E)
Time: 23:00:07
(UTC+12:00)

A-11 Canister half - Pass Details

Date: 23 July 2019
Orbit: 1526 x 1683 km, 47.3° (Epoch: 19 August)

Event Time Altitude Azimuth Distance (km) Brightness Sun altitude
Rises 17:04:37 0° 248° (WSW) 4,868 12.3 3.4°
Reaches altitude 10° 17:08:51 10° 263° (W) 3,900 12.2 2.6°
Maximum altitude 17:15:22 20° 304° (NW) 3,203 12.4 1.5°
Drops below altitude 10° 17:21:59 10° 346° (NNW) 3,932 11.8 0.3°
Sets 17:26:20 0° 2° (N) 4,918 12.0 -0.5°
